LGLM

Lemnos International Airport

Airport
ICAO code
LGLM
IATA Code
LXS
Summary
ICAO Region
EUR
ICAO Territory
Location

Gravia, Lemnos

Serving
Lemnos
Elevation
14 ft
Coordinates
39° 55' 7" N , 25° 14' 10" E
KCC
Metar
LGLM 041020Z 09006KT 9999 SCT008 SCT018 15/12 Q1015

Lemnos International Airport "Hephaestus" is an airport on Lemnos Island, Greece.

Climatology

Warm mediterranean climate (Köppen climate classification Csa)

Runways

Designator Length Width Surface Rops
04R/22L 3016 45 ASP Yes/Yes

Airport map

Aerial View

SKYbrary Partners:

Safety knowledge contributed by: